TimeGMT,TemperatureF,Dew PointF,Humidity,Sea Level PressureIn,VisibilityMPH,Wind Direction,Wind SpeedMPH,Gust SpeedMPH,PrecipitationIn,Events,Conditions,WindDirDegrees,DateUTC
12:20 AM,35.6,32.0,87,29.62,-9999.0,NW,5.8,-,N/A,,Clear,310,2011-12-17 00:20:00
12:50 AM,35.6,32.0,87,29.62,5.6,NW,5.8,-,N/A,,Unknown,310,2011-12-17 00:50:00
1:20 AM,35.6,32.0,87,29.65,5.0,NW,5.8,-,N/A,,Unknown,310,2011-12-17 01:20:00
1:50 AM,33.8,32.0,93,29.68,4.3,WNW,8.1,-,N/A,,Unknown,300,2011-12-17 01:50:00
2:20 AM,33.8,32.0,93,29.68,3.7,NW,5.8,-,N/A,,Unknown,310,2011-12-17 02:20:00
2:50 AM,33,31,89,29.71,4,West,5.8,,,,Light Haze,270,2011-12-17 02:50:00
2:50 AM,33.8,30.2,87,29.71,5.0,West,3.5,-,N/A,,Unknown,260,2011-12-17 02:50:00
3:20 AM,32.0,30.2,93,29.71,5.0,West,6.9,-,N/A,,Unknown,280,2011-12-17 03:20:00
3:50 AM,32.0,30.2,93,29.74,4.3,West,5.8,-,N/A,,Unknown,280,2011-12-17 03:50:00
4:20 AM,30.2,28.4,93,29.74,4.3,West,5.8,-,N/A,,Unknown,280,2011-12-17 04:20:00
4:50 AM,32.0,30.2,93,29.74,4.3,West,6.9,-,N/A,,Unknown,270,2011-12-17 04:50:00
5:20 AM,32.0,30.2,93,29.74,4.3,WSW,4.6,-,N/A,,Unknown,250,2011-12-17 05:20:00
5:50 AM,33,31,92,29.75,4,West,6.9,,,,Mist,270,2011-12-17 05:50:00
5:50 AM,30.2,28.4,93,29.74,4.3,West,8.1,-,N/A,,Unknown,280,2011-12-17 05:50:00
6:20 AM,32.0,30.2,93,29.77,5.0,West,8.1,-,N/A,,Unknown,270,2011-12-17 06:20:00
6:50 AM,33.8,32.0,93,29.77,-9999.0,West,9.2,-,N/A,,Clear,270,2011-12-17 06:50:00
7:20 AM,33.8,32.0,93,29.77,-9999.0,West,11.5,-,N/A,,Clear,270,2011-12-17 07:20:00
7:50 AM,33.8,32.0,93,29.77,-9999.0,West,10.4,-,N/A,,Clear,280,2011-12-17 07:50:00
8:20 AM,33.8,30.2,87,29.80,-9999.0,West,10.4,-,N/A,,Clear,270,2011-12-17 08:20:00
8:50 AM,34,32,87,29.80,15,West,10.4,,,,,260,2011-12-17 08:50:00
8:50 AM,33.8,32.0,93,29.80,-9999.0,West,10.4,-,N/A,,Clear,270,2011-12-17 08:50:00
9:20 AM,35.6,32.0,87,29.80,6.2,West,12.7,-,N/A,,Partly Cloudy,270,2011-12-17 09:20:00
9:50 AM,35.6,33.8,93,29.80,5.6,West,13.8,-,N/A,Rain,Light Rain Showers,280,2011-12-17 09:50:00
10:20 AM,35.6,33.8,93,29.80,6.2,WNW,9.2,-,N/A,,Scattered Clouds,290,2011-12-17 10:20:00
10:50 AM,37.4,35.6,93,29.80,6.2,West,12.7,-,N/A,,Partly Cloudy,270,2011-12-17 10:50:00
11:20 AM,39.2,35.6,87,29.80,-9999.0,West,16.1,-,N/A,,Clear,270,2011-12-17 11:20:00
11:50 AM,40,36,79,29.80,17,West,11.5,,,,Scattered Clouds,270,2011-12-17 11:50:00
11:50 AM,39.2,35.6,87,29.80,-9999.0,West,16.1,-,N/A,,Clear,270,2011-12-17 11:50:00
12:20 PM,41.0,37.4,87,29.80,6.2,West,13.8,-,N/A,,Partly Cloudy,280,2011-12-17 12:20:00
12:50 PM,42.8,37.4,81,29.80,6.2,WNW,11.5,-,N/A,,Partly Cloudy,290,2011-12-17 12:50:00
1:20 PM,42.8,35.6,76,29.80,6.2,West,12.7,-,N/A,,Partly Cloudy,280,2011-12-17 13:20:00
1:50 PM,42.8,35.6,76,29.80,6.2,West,15.0,-,N/A,,Partly Cloudy,280,2011-12-17 13:50:00
2:20 PM,41.0,33.8,76,29.80,6.2,WNW,13.8,-,N/A,,Partly Cloudy,290,2011-12-17 14:20:00
2:50 PM,42,34,65,29.81,25,WNW,11.5,,,,Partly Cloudy,290,2011-12-17 14:50:00
2:50 PM,41.0,33.8,76,29.80,6.2,WNW,10.4,-,N/A,,Scattered Clouds,290,2011-12-17 14:50:00
3:20 PM,41.0,33.8,76,29.80,6.2,West,11.5,-,N/A,,Scattered Clouds,280,2011-12-17 15:20:00
3:50 PM,41.0,33.8,76,29.80,6.2,WNW,11.5,-,N/A,,Mostly Cloudy,290,2011-12-17 15:50:00
4:20 PM,41.0,33.8,76,29.80,6.2,West,13.8,-,N/A,,Mostly Cloudy,280,2011-12-17 16:20:00
4:50 PM,41.0,33.8,76,29.80,6.2,WNW,9.2,-,N/A,,Mostly Cloudy,290,2011-12-17 16:50:00
5:20 PM,41.0,33.8,76,29.83,6.2,NW,8.1,-,N/A,,Scattered Clouds,310,2011-12-17 17:20:00
5:50 PM,40,34,72,29.84,25,WNW,9.2,,,Rain,Rain,290,2011-12-17 17:50:00
5:50 PM,39.2,33.8,81,29.83,6.2,WNW,10.4,-,N/A,,Partly Cloudy,290,2011-12-17 17:50:00
6:20 PM,39.2,33.8,81,29.83,6.2,West,10.4,-,N/A,,Scattered Clouds,280,2011-12-17 18:20:00
6:50 PM,39.2,33.8,81,29.83,6.2,WNW,13.8,-,N/A,,Mostly Cloudy,290,2011-12-17 18:50:00
7:20 PM,39.2,33.8,81,29.86,6.2,WNW,11.5,-,N/A,,Mostly Cloudy,300,2011-12-17 19:20:00
7:50 PM,39.2,33.8,81,29.86,6.2,WNW,12.7,-,N/A,,Mostly Cloudy,300,2011-12-17 19:50:00
8:20 PM,39.2,33.8,81,29.86,6.2,NW,11.5,-,N/A,,Mostly Cloudy,310,2011-12-17 20:20:00
8:50 PM,40,34,72,29.88,17,NW,12.7,,,,Partly Cloudy,310,2011-12-17 20:50:00
8:50 PM,39.2,33.8,81,29.89,6.2,NW,11.5,-,N/A,,Mostly Cloudy,320,2011-12-17 20:50:00
9:20 PM,39.2,33.8,81,29.89,6.2,NW,8.1,-,N/A,,Mostly Cloudy,320,2011-12-17 21:20:00
9:50 PM,39.2,32.0,75,29.89,6.2,NW,10.4,-,N/A,,Scattered Clouds,310,2011-12-17 21:50:00
10:20 PM,39.2,32.0,75,29.92,6.2,NW,8.1,-,N/A,,Partly Cloudy,310,2011-12-17 22:20:00
10:50 PM,37.4,32.0,81,29.92,-9999.0,NW,9.2,-,N/A,,Clear,310,2011-12-17 22:50:00
11:20 PM,35.6,30.2,81,29.95,-9999.0,NW,8.1,-,N/A,,Clear,310,2011-12-17 23:20:00
11:50 PM,36,31,74,29.95,14,NW,5.8,,,,,310,2011-12-17 23:50:00
11:50 PM,35.6,30.2,81,29.95,-9999.0,NW,5.8,-,N/A,,Clear,310,2011-12-17 23:50:00